Location: Rowland
(34.5359°N, 79.2929°W)
Time: 16:23:04
(UTC+00:00)

S-56A Canister/Altair - Pass Details

Date: 04 October 2022
Orbit: 638 x 2494 km, 38.9° (Epoch: 06 December)

Event Time Altitude Azimuth Distance (km) Brightness Sun altitude
Exits shadow 06:58:50 26° 69° (ENE) 2,438 10.3 -50.1°
Drops below altitude 10° 07:01:30 10° 71° (ENE) 3,216 11.1 -49.7°
Sets 07:03:51 0° 72° (ENE) 3,976 11.8 -49.3°
